Theta_e
298 298 297 297 297 296 296 295 293 289 289 290 291 289 290 291 294 289 289 297 298 298 298 298 298 298 299 299 299 299 299 299 300 300 300 301 301 302
297 296 296 295 296 296 294 294 293 291 288 288 286 286 287 290 293 288 290 294 295 296 297 297 297 297 297 297 297 297 298 298 298 298 299 300 300 300
295 295 294 294 291 289 289 288 288 288 286 286 287 286 285 285 286 287 289 287 287 295 296 296 296 296 296 296 296 296 296 296 296 297 298 298 299 299
291 289 289 290 288 287 287 287 286 286 285 282 284 284 284 284 285 285 288 290 287 292 295 295 295 295 295 295 295 295 294 294 295 296 297 297 297 297
289 288 287 288 287 287 287 287 287 288 285 283 282 284 284 284 284 285 285 285 289 293 293 294 294 294 294 294 294 293 293 293 294 294 294 295 296 297
289 288 288 288 287 286 286 286 285 284 283 283 282 283 283 284 283 282 283 284 284 289 291 292 292 292 293 293 292 291 292 293 293 293 294 293 293 294
289 288 288 290 291 289 286 285 284 283 283 283 282 282 281 281 281 282 282 282 283 284 284 285 285 285 285 289 289 291 292 292 292 293 293 293 293 293
287 286 289 290 290 290 290 290 288 284 283 282 282 281 281 281 282 282 282 281 279 284 283 283 283 283 283 284 290 290 291 291 292 292 291 291 292 292
286 286 287 288 288 286 290 290 290 290 289 285 282 282 281 283 283 282 282 281 281 283 281 281 281 281 283 286 289 290 290 291 291 291 291 291 291 291
286 285 285 285 286 286 286 285 285 286 286 287 284 284 284 285 284 285 283 282 281 282 282 279 281 280 282 283 288 289 289 290 289 290 290 290 290 290
286 286 285 285 289 289 285 283 283 284 288 290 290 290 290 290 288 282 280 279 278 279 281 279 279 280 281 281 282 287 288 288 288 289 289 289 289 289
285 286 289 286 289 288 284 283 281 282 283 283 283 284 284 284 288 282 281 278 278 278 281 279 279 280 277 278 280 282 281 286 287 287 288 288 288 285
283 283 285 289 288 288 288 283 283 284 284 281 280 280 281 281 281 282 282 282 280 279 282 282 280 279 278 278 279 281 281 281 281 282 285 286 287 287
282 282 284 288 287 287 286 288 288 286 280 279 279 278 278 278 279 280 281 281 281 280 281 281 273 276 277 276 276 279 280 280 280 280 281 284 286 287
283 286 287 287 287 285 287 287 284 280 278 277 277 277 277 277 279 278 280 281 282 281 282 280 278 277 277 276 276 277 278 279 280 279 280 280 280 281
285 283 285 285 286 284 281 281 280 279 277 277 277 277 278 278 278 281 277 278 276 277 280 280 279 278 275 276 277 276 278 277 279 279 279 280 280 281
282 281 280 279 278 278 278 278 278 278 278 278 278 277 278 278 278 278 274 272 275 274 275 278 279 278 278 277 275 276 276 276 278 278 278 277 279 280
281 279 278 278 277 277 277 277 278 279 278 279 279 277 277 276 277 275 272 271 271 274 274 276 276 274 276 277 282 276 277 275 276 278 277 276 277 280
279 277 277 278 277 277 277 277 276 278 280 279 279 275 276 277 276 272 273 274 275 274 275 276 270 272 273 272 277 283 278 278 277 276 276 277 278 279
278 278 277 277 277 277 277 276 279 279 279 279 278 277 278 277 276 272 273 274 274 275 275 273 265 268 273 274 275 277 283 277 275 274 276 279 281 284
277 277 277 277 277 278 279 279 279 279 279 277 276 276 277 277 276 272 273 277 278 275 274 275 276 282 279 277 275 275 278 283 281 277 277 277 274 274
277 277 278 279 279 280 280 279 278 274 272 271 271 270 272 275 274 273 274 274 275 276 276 277 276 274 266 275 273 274 275 277 280 282 283 282 275 274
278 279 280 280 280 280 279 278 276 274 276 276 276 275 275 274 275 274 273 275 276 276 276 274 274 273 270 273 276 275 274 274 272 274 277 282 284 284
Wind_Speed
6 6 6 3 5 3 4 3 4 3 1 2 3 4 3 4 6 5 5 11 13 12 13 11 14 15 16 17 18 18 20 19 20 21 21 20 21 23
6 8 6 4 5 3 4 4 3 3 3 1 2 2 3 3 5 5 5 8 11 13 13 13 15 14 17 17 17 20 20 20 21 21 20 22 23 23
6 7 7 7 5 4 4 4 4 3 3 1 1 1 2 2 3 3 2 2 4 11 13 15 14 16 17 17 20 20 19 20 21 20 22 22 23 24
8 8 8 7 6 4 4 5 3 3 3 2 1 1 0 1 1 2 2 2 4 7 14 16 14 15 17 20 19 20 19 21 20 21 21 23 25 25
9 9 7 8 5 3 3 4 3 3 3 2 1 1 1 1 2 2 2 3 3 8 13 14 16 16 20 19 19 19 21 19 20 22 24 25 24 24
9 9 8 8 6 5 4 4 5 4 3 2 1 1 1 2 1 1 4 2 3 5 9 11 16 18 18 19 17 19 19 20 22 23 22 23 24 26
8 10 8 9 11 6 4 4 4 3 2 2 1 2 2 3 2 2 2 3 4 3 3 7 5 6 5 9 13 18 21 23 22 21 22 24 25 26
9 8 8 10 9 9 8 7 6 4 3 2 1 1 3 1 1 2 2 3 4 1 4 8 3 5 5 6 17 23 23 22 20 22 23 24 26 26
8 7 6 5 8 5 7 7 5 1 4 4 4 3 2 2 2 2 4 2 4 3 2 8 2 6 6 7 20 23 20 19 22 25 24 27 26 28
7 6 8 5 5 6 5 4 3 2 3 2 3 2 4 5 5 4 3 3 4 3 2 7 4 7 7 7 19 19 16 21 25 25 27 27 27 26
7 6 7 6 8 8 5 4 3 2 3 7 8 9 11 10 8 2 4 3 4 3 2 2 3 10 8 8 5 10 22 21 24 25 26 26 26 26
6 5 12 8 8 6 5 2 1 2 2 3 5 7 6 5 10 5 3 1 2 5 1 6 5 4 8 2 5 9 4 16 23 25 24 24 23 11
5 4 3 10 7 3 2 3 2 3 1 3 3 3 3 4 4 4 4 3 5 5 6 7 5 5 4 10 3 7 7 9 10 12 19 21 23 21
5 4 4 8 4 2 2 3 4 3 2 2 2 2 2 2 3 4 4 4 4 7 7 5 3 5 6 9 11 6 9 8 8 8 9 16 21 23
5 8 6 3 2 3 3 4 8 4 2 2 1 1 2 3 4 4 4 6 5 7 7 6 6 7 5 8 10 10 15 6 9 6 10 9 10 11
7 5 4 4 3 4 6 7 4 3 1 0 1 2 2 3 3 4 3 5 4 6 7 8 7 6 6 7 8 12 9 7 9 9 9 9 9 9
6 3 2 2 3 3 3 3 2 2 2 1 1 3 4 5 5 3 3 3 6 6 7 8 7 7 7 10 9 9 9 9 9 9 9 10 10 9
3 3 2 3 3 3 2 1 1 3 1 3 4 3 4 5 5 3 2 3 5 7 7 7 7 4 6 6 14 9 7 6 7 9 7 8 10 10
3 3 3 4 3 3 2 2 0 1 3 3 4 3 4 4 8 4 5 6 8 7 8 7 4 5 9 11 7 12 8 8 8 8 7 7 10 11
3 4 4 3 2 1 1 2 3 3 3 3 3 4 5 6 6 4 5 8 8 8 6 5 3 3 7 10 12 12 13 6 5 8 8 9 10 17
3 3 3 2 1 1 2 2 2 3 3 2 3 4 5 5 7 4 6 15 15 8 10 9 7 18 9 8 8 9 9 13 11 7 7 8 6 5
3 3 2 2 2 2 1 2 2 2 2 3 3 3 4 5 6 7 7 8 9 8 9 9 7 6 2 7 10 12 8 8 9 17 15 14 4 7
2 2 2 2 1 0 1 1 2 3 3 4 4 5 7 6 8 7 7 8 9 9 6 10 8 5 5 6 13 9 14 11 4 7 7 14 14 16
Wind_Direction
122 117 104 99 76 69 80 111 133 145 145 11 111 14 42 61 53 45 32 6 4 4 352 1 344 348 346 346 343 347 342 341 338 337 335 334 334 334
130 118 114 105 89 71 86 77 69 114 126 129 67 66 26 40 55 51 17 18 9 358 347 346 342 344 342 338 342 339 339 337 338 333 332 334 329 328
114 116 108 111 100 103 82 74 75 94 111 328 111 91 48 27 15 3 358 37 353 345 351 344 340 337 336 338 337 334 334 338 332 329 330 327 329 326
128 120 119 110 105 96 93 98 102 85 116 142 260 343 329 255 226 268 333 347 337 335 339 331 333 331 334 331 331 332 335 330 328 327 329 330 326 321
131 117 117 110 104 93 104 113 102 84 91 110 303 331 293 358 335 350 352 324 329 340 329 329 326 333 328 328 326 332 329 323 327 332 326 321 322 325
112 110 105 100 112 111 94 90 85 85 74 80 59 326 1 337 45 315 336 331 309 326 316 332 332 321 321 325 330 324 319 327 327 322 324 327 323 318
114 104 108 119 118 117 125 99 104 101 86 77 52 37 328 338 358 318 281 291 292 268 327 313 301 302 296 319 315 316 324 321 321 321 326 322 320 316
120 117 121 113 118 116 109 125 136 127 134 139 129 176 254 281 313 277 271 298 330 326 326 309 281 293 304 306 317 320 316 319 320 326 324 323 321 317
121 123 132 127 109 107 86 66 52 120 171 171 177 208 230 232 211 262 259 264 258 275 307 303 305 299 298 299 310 312 317 320 325 323 322 318 318 317
122 127 112 128 133 116 98 81 49 25 18 359 155 250 235 263 228 233 246 263 275 274 287 291 304 296 297 295 299 311 317 322 319 321 317 318 317 313
122 117 119 134 128 108 95 82 44 2 21 23 15 354 334 330 330 25 332 338 303 302 280 295 310 305 300 297 291 319 315 314 315 314 315 315 316 318
119 133 137 138 122 104 115 117 9 306 1 356 356 344 340 327 357 36 12 339 322 310 237 324 299 322 315 297 331 297 279 301 314 314 314 318 318 312
132 160 159 134 116 96 82 137 234 251 331 22 328 328 352 8 23 9 353 321 309 283 296 315 318 310 269 304 278 295 294 310 302 301 306 312 317 317
140 134 115 118 95 28 342 289 299 25 37 27 30 28 23 335 317 309 289 275 251 269 288 278 256 279 286 295 301 303 307 299 295 298 301 312 312 313
124 119 116 137 123 58 320 13 58 53 72 71 74 259 241 254 276 287 274 268 277 275 284 275 267 274 268 283 290 304 308 306 292 287 306 305 309 308
96 97 124 144 108 86 88 66 62 66 104 189 253 264 291 323 313 301 308 309 293 290 277 257 261 258 276 273 283 292 293 295 303 298 297 301 302 296
107 86 86 86 101 93 73 70 62 27 22 10 357 333 330 315 302 307 288 291 294 295 293 296 287 250 255 270 283 278 287 287 286 291 308 308 305 294
97 131 123 115 100 102 108 87 21 27 20 4 335 318 307 300 294 292 275 276 283 292 288 291 292 303 292 263 258 278 282 270 285 297 298 298 303 310
111 120 106 96 103 124 158 148 118 19 355 317 298 288 283 286 315 286 292 297 304 293 283 283 283 299 307 309 295 280 294 290 292 294 287 286 293 302
109 111 114 131 153 153 97 50 9 324 293 288 280 268 292 301 303 292 295 298 290 285 294 297 268 257 288 300 312 302 288 274 275 284 293 296 287 290
119 118 119 125 136 91 37 343 291 289 302 305 291 286 300 303 298 272 287 308 311 309 304 302 291 294 299 298 292 297 298 288 277 268 284 294 291 299
125 119 131 112 63 37 310 265 310 332 299 287 285 283 294 306 298 292 294 297 302 298 295 295 294 294 285 289 296 296 290 300 300 298 295 292 282 296
147 139 98 60 77 299 290 301 257 250 277 301 303 304 306 302 299 285 286 291 294 296 297 305 303 290 268 269 287 298 296 298 296 308 297 298 303 305